Location: Newark
(45.5000°N, 11.4167°E)
Time: 08:38:17
(UTC+00:00)

Altair - Pass Details

Date: 30 August 2019
Orbit: 1501 x 1683 km, 47.2° (Epoch: 15 September)

Event Time Altitude Azimuth Distance (km) Brightness Sun altitude
Exits shadow 02:04:44 30° 258° (WSW) 2,610 8.2 -23.4°
Maximum altitude 02:10:28 87° 347° (NNW) 1,607 7.5 -22.7°
Drops below altitude 10° 02:20:02 10° 78° (ENE) 3,744 10.4 -21.4°
Sets 02:23:03 0° 79° (ENE) 4,706 11.1 -21.0°
